Location: Unspecified
(0.0000°N, 0.0000°E)
Time: 19:01:23
(UTC+00:00)

Vanguard 2 Rocket - Pass Details

Date: 22 January 2020
Orbit: 554 x 3327 km, 32.9° (Epoch: 20 February)

Event Time Altitude Azimuth Distance (km) Brightness Sun altitude
Rises 17:25:22 0° 261° (W) 7,255 13.4 10.9°
Reaches altitude 10° 17:32:24 10° 247° (WSW) 6,285 15.0 9.2°
Maximum altitude 17:45:58 22° 204° (SSW) 4,990 11.4 6.0°
Drops below altitude 10° 17:57:22 10° 160° (SSE) 5,179 10.8 3.3°
Sets 18:02:25 0° 144° (SE) 5,729 10.8 2.1°
